This demonstration page uses our WeatherBlox Daily Observations layout. Learn more.

40.92945, -100.16068

Hourly Observations for March 29, 2017

Temp ( °F °C ) Dew Point ( °F °C ) Humidity (%) Winds ( mph kmh ) Pressure ( in mb ) Visibility ( mi km ) Precip ( " mm )
12:15 am 00:15 Cloudy with Light Rain 43 6.2 41 5.1 93 93 NE 9 15 30.09 1019 5 8.0467 0 0
12:35 am 00:35 Cloudy with Light Rain 43 6.2 41 5 92 92 NE 8 13 30.09 1019 5 8.0467 0.01 0.254
12:55 am 00:55 Cloudy with Light Rain 43 6.2 41 5.1 93 93 NE 12 19 30.09 1019 5 8.0467 0.03 0.762
1:15 am 01:15 Cloudy with Light Rain 43 6.2 41 5.1 93 93 NE 10 17 30.09 1019 5 8.0467 0.01 0.254
1:35 am 01:35 Cloudy with Light Rain 43 6.2 41 5.1 93 93 NE 9 15 30.09 1019 5 8.0467 0.03 0.762
1:55 am 01:55 Cloudy with Drizzle 43 6.2 41 5.1 93 93 NNE 12 19 30.09 1019 5 8.0467 0.04 1.016
2:15 am 02:15 Cloudy with Rain 43 6.1 41 5 93 93 NNE 9 15 30.09 1019 5 8.0467 0.01 0.254
2:35 am 02:35 Cloudy with Rain 43 6.2 41 5.1 93 93 NE 10 17 30.09 1019 5 8.0467 0.02 0.508
2:55 am 02:55 Cloudy with Drizzle 43 6.1 41 5 93 93 NE 10 17 30.09 1019 5 8.0467 0.03 0.762
3:15 am 03:15 Cloudy with Drizzle 43 6.1 41 5.1 93 93 NE 10 17 30.09 1019 5 8.0467 0.01 0.254
3:35 am 03:35 Cloudy with Rain 43 6.1 41 5.1 93 93 NNE 12 19 30.09 1019 5 8.0467 0.02 0.508
3:55 am 03:55 Cloudy with Rain 43 6.1 41 5 93 93 NNE 10 17 30.09 1019 7 11.26538 0.02 0.508
4:15 am 04:15 Cloudy with Drizzle 43 6.1 41 5 93 93 NE 9 15 30.09 1019 7 11.26538 0.01 0.254
4:35 am 04:35 Cloudy with Drizzle 43 6.1 41 5 93 93 NNE 12 19 30.09 1019 7 11.26538 0.01 0.254
4:55 am 04:55 Cloudy with Drizzle 43 6.1 41 5 93 93 NNE 12 19 30.09 1019 7 11.26538 0.01 0.254
5:15 am 05:15 Cloudy with Light Rain 43 6.1 41 4.9 92 92 NNE 10 17 30.09 1019 7 11.26538 0.01 0.254
5:35 am 05:35 Cloudy with Rain 43 6.1 41 5 93 93 NNE 12 19 30.09 1019 7 11.26538 0.02 0.508
5:55 am 05:55 Cloudy with Drizzle 43 6.1 41 5 93 93 NNE 10 17 30.09 1019 7 11.26538 0.02 0.508
6:15 am 06:15 Cloudy with Light Drizzle 43 6.1 41 5 93 93 NNE 12 19 30.09 1019 7 11.26538 0.01 0.254
6:35 am 06:35 Cloudy with Light Drizzle 43 6.1 41 5 93 93 NNE 10 17 30.06 1018 5 8.0467 0.01 0.254
6:55 am 06:55 Cloudy 43 6.1 41 5 93 93 NNE 13 20 30.06 1018 7 11.26538 0.01 0.254
7:15 am 07:15 Cloudy 43 6.1 41 5 93 93 NNE 15 24 30.06 1018 7 11.26538 0 0
7:35 am 07:35 Cloudy 43 6.1 41 5 93 93 NNE 14 22 30.06 1018 7 11.26538 0 0
7:55 am 07:55 Cloudy 43 6.2 41 5 92 92 NNE 15 24 30.06 1018 7 11.26538 0 0
8:15 am 08:15 Cloudy 43 6.1 41 4.9 92 92 NE 17 28 30.06 1018 10 16.0934 0 0
8:35 am 08:35 Cloudy with Mist and Fog 43 6.1 41 5 93 93 NE 16 26 30.06 1018 5 8.0467 0 0
8:55 am 08:55 Cloudy with Mist and Fog 43 6 41 5 93 93 NNE 12 19 30.06 1018 4 6.43736 0 0
9:15 am 09:15 Cloudy 43 6.2 41 5.1 93 93 NE 15 24 30.06 1018 7 11.26538 0 0
9:35 am 09:35 Cloudy 43 6.2 41 4.8 91 91 NE 18 30 30.06 1018 10 16.0934 0 0
9:55 am 09:55 Cloudy 43 6.2 41 5 92 92 NNE 20 31 30.06 1018 7 11.26538 0 0
10:15 am 10:15 Cloudy with Mist and Fog 43 6.2 41 5 92 92 NNE 14 22 30.06 1018 5 8.0467 0 0
10:35 am 10:35 Cloudy with Mist and Fog 43 6.2 41 5 92 92 NNE 18 30 30.06 1018 4 6.43736 0 0
10:55 am 10:55 Cloudy 44 6.4 41 5 91 91 NNE 18 30 30.06 1018 7 11.26538 0 0
11:15 am 11:15 Cloudy 44 6.5 41 5 90 90 NNE 16 26 30.06 1018 10 16.0934 0 0
11:35 am 11:35 Cloudy 44 6.6 41 5.1 90 90 NNE 17 28 30.06 1018 7 11.26538 0 0
11:55 am 11:55 Cloudy 44 6.8 41 5.1 89 89 NNE 20 31 30.03 1017 10 16.0934 0 0
12:15 pm 12:15 Cloudy with Mist and Fog 44 6.7 41 5 89 89 NNE 20 31 30 1016 3 4.82802 0 0
12:35 pm 12:35 Cloudy with Light Rain 44 6.5 41 5 90 90 NNE 20 31 30 1016 2 3.21868 0 0
12:55 pm 12:55 Cloudy with Light Rain 44 6.5 41 5 90 90 NNE 18 30 30 1016 2.5 4.02335 0 0
1:15 pm 13:15 Cloudy with Light Rain 44 6.6 41 5.2 91 91 NNE 22 35 29.97 1015 4 6.43736 0 0
1:35 pm 13:35 Cloudy with Light Rain 44 6.8 42 5.4 91 91 NNE 21 33 29.97 1015 5 8.0467 0.01 0.254
1:55 pm 13:55 Cloudy with Light Rain 44 6.9 42 5.3 90 90 NNE 20 31 29.97 1015 7 11.26538 0.01 0.254
2:15 pm 14:15 Cloudy with Light Rain 44 6.9 41 5.1 88 88 NNE 22 35 29.94 1014 7 11.26538 0.01 0.254
2:35 pm 14:35 Cloudy with Light Rain 45 7 41 5 87 87 NNE 24 39 29.94 1014 7 11.26538 0.01 0.254
2:55 pm 14:55 Cloudy with Light Rain 44 6.8 41 4.9 88 88 NNE 21 33 29.94 1014 7 11.26538 0.01 0.254
3:15 pm 15:15 Cloudy with Light Drizzle 44 6.8 41 4.9 88 88 NNE 20 31 29.94 1014 10 16.0934 0.01 0.254
3:35 pm 15:35 Cloudy with Light Rain 44 6.6 40 4.5 87 87 NNE 20 31 29.94 1014 10 16.0934 0.01 0.254
3:55 pm 15:55 Cloudy with Light Rain 44 6.5 40 4.4 87 87 NNE 21 33 29.94 1014 10 16.0934 0.02 0.508
4:15 pm 16:15 Cloudy with Rain 44 6.5 40 4.5 87 87 NNE 20 31 29.94 1014 10 16.0934 0 0
4:35 pm 16:35 Cloudy with Light Rain 44 6.4 40 4.6 88 88 NNE 15 24 29.94 1014 10 16.0934 0.02 0.508
4:55 pm 16:55 Cloudy with Light Rain 43 6.3 40 4.4 88 88 NNE 17 28 29.94 1014 10 16.0934 0.03 0.762
5:15 pm 17:15 Cloudy with Light Rain 43 6.2 40 4.3 88 88 NNE 17 28 29.94 1014 10 16.0934 0.01 0.254
5:35 pm 17:35 Cloudy with Light Rain 43 6.2 40 4.5 89 89 NNE 18 30 29.94 1014 10 16.0934 0.03 0.762
5:55 pm 17:55 Cloudy with Light Rain 43 6.2 40 4.5 89 89 NNE 17 28 29.94 1014 10 16.0934 0.04 1.016
6:15 pm 18:15 Cloudy with Rain 43 6 39 4 87 87 NNE 16 26 29.94 1014 10 16.0934 0 0
6:35 pm 18:35 Cloudy with Light Rain 42 5.8 39 3.9 88 88 NNE 16 26 29.97 1015 10 16.0934 0.01 0.254
6:55 pm 18:55 Cloudy with Light Drizzle 42 5.6 39 3.8 88 88 NNE 15 24 29.97 1015 10 16.0934 0.01 0.254
7:15 pm 19:15 Cloudy with Light Drizzle 42 5.5 38 3.6 88 88 N 17 28 29.97 1015 10 16.0934 0 0
7:35 pm 19:35 Cloudy 42 5.5 39 3.7 88 88 N 16 26 29.97 1015 10 16.0934 0 0
7:55 pm 19:55 Cloudy with Light Rain 42 5.5 39 4 90 90 N 21 33 29.97 1015 10 16.0934 0 0
8:15 pm 20:15 Cloudy 42 5.5 38 3.6 88 88 N 22 35 29.97 1015 10 16.0934 0 0
8:35 pm 20:35 Cloudy 42 5.5 38 3.5 87 87 N 15 24 29.97 1015 10 16.0934 0 0
8:55 pm 20:55 Cloudy 41 5.2 39 3.7 90 90 NNE 15 24 29.97 1015 7 11.26538 0 0
9:15 pm 21:15 Cloudy 41 5 38 3.5 90 90 NNE 18 30 29.97 1015 10 16.0934 0 0
9:35 pm 21:35 Cloudy 40 4.7 38 3.2 90 90 NNE 18 30 29.97 1015 10 16.0934 0 0
9:55 pm 21:55 Cloudy 40 4.7 38 3.3 91 91 N 16 26 29.97 1015 10 16.0934 0 0
10:15 pm 22:15 Cloudy 40 4.7 37 3 89 89 NNE 20 31 29.97 1015 10 16.0934 0 0
10:35 pm 22:35 Cloudy 40 4.5 37 3 90 90 N 16 26 29.97 1015 10 16.0934 0 0
10:55 pm 22:55 Cloudy 40 4.5 37 2.8 89 89 N 21 33 29.94 1014 10 16.0934 0 0
11:15 pm 23:15 Cloudy 40 4.5 37 2.8 89 89 N 16 26 29.94 1014 10 16.0934 0 0
11:35 pm 23:35 Cloudy 40 4.3 37 2.9 91 91 N 18 30 29.94 1014 10 16.0934 0 0
11:55 pm 23:55 Cloudy 39 4.1 37 2.6 90 90 N 18 30 29.91 1013 10 16.0934 0 0

Powered by AerisWeather